| time (UTC) | temp C | wind direction | speed KPH | gust KPH | rain 1hr cm | rain 24hr cm | rain mn cm | humidity % | barometer mb |
| 20260503210954 | 27 | 259 | 0.0 | 4.8 | 0.00 | 0.00 | 0.00 | 41 | 1013.7 |
| 20260503210451 | 27 | 328 | 0.0 | 3.2 | 0.00 | 0.00 | 0.00 | 42 | 1013.7 |
| 20260503205952 | 27 | 331 | 0.0 | 1.6 | 0.00 | 0.00 | 0.00 | 43 | 1013.7 |
| 20260503205449 | 27 | 345 | 0.0 | 1.6 | 0.00 | 0.00 | 0.00 | 44 | 1013.8 |
| 20260503204945 | 27 | 356 | 0.0 | 3.2 | 0.00 | 0.00 | 0.00 | 44 | 1013.8 |
| 20260503204442 | 26 | 315 | 0.0 | 4.8 | 0.00 | 0.00 | 0.00 | 43 | 1013.9 |
| 20260503203939 | 27 | 279 | 0.0 | 3.2 | 0.00 | 0.00 | 0.00 | 45 | 1014.0 |
| 20260503203437 | 26 | 66 | 1.6 | 1.6 | 0.00 | 0.00 | 0.00 | 46 | 1014.0 |
| 20260503202933 | 26 | 90 | 0.0 | 3.2 | 0.00 | 0.00 | 0.00 | 46 | 1014.3 |
| 20260503202432 | 26 | 0 | 0.0 | 1.6 | 0.00 | 0.00 | 0.00 | 47 | 1014.2 |
| 20260503201930 | 26 | 135 | 0.0 | 3.2 | 0.00 | 0.00 | 0.00 | 46 | 1014.3 |
| 20260503201427 | 25 | 82 | 0.0 | 1.6 | 0.00 | 0.00 | 0.00 | 48 | 1014.3 |
| 20260503200924 | 25 | 345 | 3.2 | 3.2 | 0.00 | 0.00 | 0.00 | 47 | 1014.4 |
| 20260503200420 | 25 | 180 | 0.0 | 1.6 | 0.00 | 0.00 | 0.00 | 49 | 1014.5 |
| 20260503195917 | 25 | 14 | 0.0 | 1.6 | 0.00 | 0.00 | 0.00 | 50 | 1014.6 |
| 20260503195415 | 25 | 270 | 0.0 | 3.2 | 0.00 | 0.00 | 0.00 | 50 | 1014.8 |
| 20260503194911 | 25 | 96 | 0.0 | 3.2 | 0.00 | 0.00 | 0.00 | 48 | 1014.7 |
| 20260503194408 | 25 | 285 | 0.0 | 3.2 | 0.00 | 0.00 | 0.00 | 50 | 1014.9 |
| 20260503193903 | 25 | 228 | 3.2 | 4.8 | 0.00 | 0.00 | 0.00 | 49 | 1015.0 |
| 20260503193359 | 24 | 173 | 0.0 | 3.2 | 0.00 | 0.00 | 0.00 | 49 | 1015.0 |
| 20260503192855 | 24 | 12 | 1.6 | 1.6 | 0.00 | 0.00 | 0.00 | 53 | 1015.2 |
| 20260503192350 | 24 | 99 | 0.0 | 1.6 | 0.00 | 0.00 | 0.00 | 53 | 1015.1 |
| 20260503191847 | 23 | 255 | 0.0 | 0.0 | 0.00 | 0.00 | 0.00 | 52 | 1015.2 |
| 20260503191344 | 23 | 18 | 1.6 | 4.8 | 0.00 | 0.00 | 0.00 | 54 | 1015.2 |
| 20260503190835 | 23 | 96 | 1.6 | 1.6 | 0.00 | 0.00 | 0.00 | 54 | 1015.4 |
| 20260503190333 | 23 | 82 | 1.6 | 3.2 | 0.00 | 0.00 | 0.00 | 54 | 1015.5 |
| 20260503185830 | 23 | 8 | 0.0 | 3.2 | 0.00 | 0.00 | 0.00 | 56 | 1015.5 |
| 20260503185325 | 23 | 40 | 0.0 | 3.2 | 0.00 | 0.00 | 0.00 | 56 | 1015.6 |
| 20260503184820 | 23 | 28 | 3.2 | 3.2 | 0.00 | 0.00 | 0.00 | 56 | 1015.5 |
| 20260503184316 | 23 | 90 | 0.0 | 1.6 | 0.00 | 0.00 | 0.00 | 56 | 1015.6 |
| 20260503183812 | 23 | 270 | 0.0 | 4.8 | 0.00 | 0.00 | 0.00 | 56 | 1015.7 |
| 20260503183310 | 22 | 135 | 0.0 | 3.2 | 0.00 | 0.00 | 0.00 | 57 | 1015.6 |
| 20260503182807 | 22 | 90 | 0.0 | 0.0 | 0.00 | 0.00 | 0.00 | 57 | 1015.7 |
| 20260503182306 | 22 | 74 | 0.0 | 1.6 | 0.00 | 0.00 | 0.00 | 58 | 1015.7 |
| 20260503181803 | 22 | 328 | 0.0 | 0.0 | 0.00 | 0.00 | 0.00 | 57 | 1015.6 |
| 20260503181300 | 22 | 98 | 0.0 | 1.6 | 0.00 | 0.00 | 0.00 | 60 | 1015.8 |
| 20260503180756 | 22 | 145 | 0.0 | 4.8 | 0.00 | 0.00 | 0.00 | 59 | 1016.0 |
| 20260503180254 | 21 | 66 | 1.6 | 3.2 | 0.00 | 0.00 | 0.00 | 59 | 1015.9 |
| 20260503175750 | 21 | 208 | 3.2 | 4.8 | 0.00 | 0.00 | 0.00 | 59 | 1015.9 |
| 20260503175249 | 21 | 90 | 1.6 | 1.6 | 0.00 | 0.00 | 0.00 | 63 | 1015.8 |
| 20260503174744 | 21 | 63 | 0.0 | 3.2 | 0.00 | 0.00 | 0.00 | 61 | 1015.8 |
| 20260503174242 | 21 | 157 | 0.0 | 1.6 | 0.00 | 0.00 | 0.00 | 61 | 1016.0 |
| 20260503173742 | 20 | 216 | 3.2 | 3.2 | 0.00 | 0.00 | 0.00 | 63 | 1016.0 |
| 20260503173239 | 20 | 71 | 0.0 | 1.6 | 0.00 | 0.00 | 0.00 | 65 | 1016.1 |
| 20260503172736 | 20 | 194 | 0.0 | 3.2 | 0.00 | 0.00 | 0.00 | 65 | 1016.1 |
| 20260503172233 | 20 | 35 | 0.0 | 0.0 | 0.00 | 0.00 | 0.00 | 66 | 1016.2 |
| 20260503171729 | 20 | 74 | 0.0 | 1.6 | 0.00 | 0.00 | 0.00 | 68 | 1016.0 |
| 20260503171226 | 19 | 81 | 0.0 | 0.0 | 0.00 | 0.00 | 0.00 | 68 | 1016.1 |
| 20260503170723 | 19 | 0 | 0.0 | 0.0 | 0.00 | 0.00 | 0.00 | 67 | 1016.2 |
| 20260503170220 | 19 | 33 | 3.2 | 3.2 | 0.00 | 0.00 | 0.00 | 68 | 1016.2 |
| 20260503160142 | 16 | 74 | 0.0 | 1.6 | 0.00 | 0.00 | 0.00 | 85 | 1016.3 |
| 20260503150612 | 13 | 75 | 1.6 | 3.2 | 0.00 | 0.00 | 0.00 | 91 | 1016.5 |
| 20260503150108 | 13 | 69 | 1.6 | 3.2 | 0.00 | 0.00 | 0.00 | 92 | 1016.4 |
| 20260503131001 | 11 | 74 | 0.0 | 3.2 | 0.00 | 0.00 | 0.00 | 95 | 1016.2 |
| 20260503130459 | 11 | 90 | 0.0 | 0.0 | 0.00 | 0.00 | 0.00 | 95 | 1016.1 |
| 20260503110344 | 12 | 81 | 0.0 | 1.6 | 0.00 | 0.00 | 0.00 | 93 | 1016.4 |
| 20260503090229 | 12 | 40 | 0.0 | 3.2 | 0.00 | 0.00 | 0.00 | 91 | 1016.7 |
| 20260503081156 | 13 | 82 | 0.0 | 1.6 | 0.00 | 0.00 | 0.00 | 91 | 1016.8 |
| 20260503080652 | 13 | 97 | 1.6 | 3.2 | 0.00 | 0.00 | 0.00 | 91 | 1016.8 |
| 20260503080149 | 13 | 90 | 0.0 | 1.6 | 0.00 | 0.00 | 0.00 | 91 | 1016.7 |
| 20260503072626 | 14 | 123 | 3.2 | 3.2 | 0.00 | 0.00 | 0.00 | 87 | 1016.8 |
| 20260503072123 | 14 | 74 | 3.2 | 3.2 | 0.00 | 0.00 | 0.00 | 88 | 1016.9 |
| 20260503071619 | 13 | 114 | 1.6 | 3.2 | 0.00 | 0.00 | 0.00 | 88 | 1016.8 |
| 20260503071116 | 13 | 81 | 0.0 | 1.6 | 0.00 | 0.00 | 0.00 | 88 | 1016.8 |
| 20260503070613 | 13 | 98 | 0.0 | 1.6 | 0.00 | 0.00 | 0.00 | 88 | 1016.7 |
| 20260503070111 | 13 | 90 | 0.0 | 1.6 | 0.00 | 0.00 | 0.00 | 87 | 1016.6 |
| 20260503055032 | 14 | 90 | 0.0 | 1.6 | 0.00 | 0.00 | 0.00 | 88 | 1016.8 |
| 20260503054528 | 14 | 111 | 0.0 | 1.6 | 0.00 | 0.00 | 0.00 | 88 | 1016.8 |
| 20260503054026 | 14 | 99 | 0.0 | 1.6 | 0.00 | 0.00 | 0.00 | 88 | 1016.8 |
| 20260503053523 | 14 | 160 | 0.0 | 1.6 | 0.00 | 0.00 | 0.00 | 88 | 1016.8 |
| 20260503053021 | 15 | 90 | 0.0 | 0.0 | 0.00 | 0.00 | 0.00 | 87 | 1016.9 |
| 20260503052517 | 15 | 90 | 0.0 | 1.6 | 0.00 | 0.00 | 0.00 | 86 | 1016.9 |
| 20260503052014 | 15 | 81 | 0.0 | 0.0 | 0.00 | 0.00 | 0.00 | 87 | 1017.0 |
| 20260503051509 | 15 | 74 | 0.0 | 0.0 | 0.00 | 0.00 | 0.00 | 86 | 1016.7 |
| 20260503051007 | 15 | 74 | 0.0 | 0.0 | 0.00 | 0.00 | 0.00 | 85 | 1016.9 |
| 20260503050503 | 15 | 74 | 0.0 | 0.0 | 0.00 | 0.00 | 0.00 | 85 | 1016.8 |
| 20260503050001 | 15 | 90 | 0.0 | 0.0 | 0.00 | 0.00 | 0.00 | 85 | 1016.8 |
| 20260503045458 | 15 | 74 | 0.0 | 0.0 | 0.00 | 0.00 | 0.00 | 85 | 1016.7 |
| 20260503044954 | 15 | 106 | 0.0 | 0.0 | 0.00 | 0.00 | 0.00 | 85 | 1016.7 |
| 20260503044451 | 15 | 106 | 0.0 | 0.0 | 0.00 | 0.00 | 0.00 | 85 | 1016.7 |
| 20260503043949 | 15 | 90 | 0.0 | 1.6 | 0.00 | 0.00 | 0.00 | 85 | 1016.7 |
| 20260503043444 | 15 | 15 | 0.0 | 1.6 | 0.00 | 0.00 | 0.00 | 84 | 1016.7 |
| 20260503042941 | 16 | 90 | 0.0 | 0.0 | 0.00 | 0.00 | 0.00 | 80 | 1016.4 |
| 20260503042438 | 17 | 90 | 0.0 | 0.0 | 0.00 | 0.00 | 0.00 | 78 | 1016.5 |
| 20260503041935 | 17 | 90 | 0.0 | 1.6 | 0.00 | 0.00 | 0.00 | 78 | 1016.4 |
| 20260503041431 | 17 | 90 | 0.0 | 1.6 | 0.00 | 0.00 | 0.00 | 76 | 1016.2 |
| 20260503040929 | 17 | 82 | 0.0 | 1.6 | 0.00 | 0.00 | 0.00 | 75 | 1016.1 |
| 20260503040426 | 17 | 90 | 0.0 | 1.6 | 0.00 | 0.00 | 0.00 | 74 | 1016.0 |
| 20260503035924 | 17 | 90 | 1.6 | 3.2 | 0.00 | 0.00 | 0.00 | 73 | 1015.8 |
| 20260503035420 | 17 | 99 | 0.0 | 1.6 | 0.00 | 0.00 | 0.00 | 72 | 1016.0 |
| 20260503034918 | 18 | 90 | 0.0 | 0.0 | 0.00 | 0.00 | 0.00 | 74 | 1015.9 |
| 20260503034415 | 18 | 90 | 0.0 | 0.0 | 0.00 | 0.00 | 0.00 | 74 | 1015.7 |
| 20260503033912 | 18 | 90 | 0.0 | 0.0 | 0.00 | 0.00 | 0.00 | 74 | 1015.6 |
| 20260503033409 | 18 | 90 | 0.0 | 0.0 | 0.00 | 0.00 | 0.00 | 72 | 1015.5 |
| 20260503032907 | 18 | 90 | 0.0 | 0.0 | 0.00 | 0.00 | 0.00 | 70 | 1015.4 |
| 20260503032406 | 19 | 74 | 0.0 | 0.0 | 0.00 | 0.00 | 0.00 | 68 | 1015.4 |
| 20260503031903 | 20 | 74 | 0.0 | 0.0 | 0.00 | 0.00 | 0.00 | 68 | 1015.5 |
| 20260503031401 | 20 | 74 | 0.0 | 0.0 | 0.00 | 0.00 | 0.00 | 67 | 1015.4 |
| 20260503030857 | 20 | 74 | 0.0 | 0.0 | 0.00 | 0.00 | 0.00 | 64 | 1015.3 |
| 20260503030353 | 20 | 74 | 0.0 | 0.0 | 0.00 | 0.00 | 0.00 | 64 | 1015.2 |
| 20260503025850 | 20 | 81 | 0.0 | 0.0 | 0.00 | 0.00 | 0.00 | 63 | 1015.0 |
| 20260503025347 | 20 | 84 | 0.0 | 1.6 | 0.00 | 0.00 | 0.00 | 64 | 1015.1 |
| 20260503024845 | 20 | 60 | 0.0 | 1.6 | 0.00 | 0.00 | 0.00 | 65 | 1015.2 |
| 20260503024341 | 20 | 90 | 0.0 | 0.0 | 0.00 | 0.00 | 0.00 | 65 | 1014.9 |
| 20260503023838 | 20 | 74 | 0.0 | 1.6 | 0.00 | 0.00 | 0.00 | 64 | 1015.0 |
| 20260503023335 | 20 | 90 | 0.0 | 0.0 | 0.00 | 0.00 | 0.00 | 64 | 1014.9 |
| 20260503022831 | 21 | 81 | 0.0 | 0.0 | 0.00 | 0.00 | 0.00 | 63 | 1015.1 |
| 20260503022326 | 21 | 81 | 0.0 | 1.6 | 0.00 | 0.00 | 0.00 | 62 | 1014.9 |
| 20260503021823 | 21 | 82 | 0.0 | 1.6 | 0.00 | 0.00 | 0.00 | 62 | 1014.9 |
| 20260503021319 | 21 | 90 | 0.0 | 0.0 | 0.00 | 0.00 | 0.00 | 63 | 1014.9 |
| 20260503020817 | 21 | 90 | 0.0 | 0.0 | 0.00 | 0.00 | 0.00 | 62 | 1014.9 |
| 20260503020315 | 21 | 90 | 0.0 | 0.0 | 0.00 | 0.00 | 0.00 | 63 | 1014.8 |
| 20260503015811 | 21 | 82 | 1.6 | 1.6 | 0.00 | 0.00 | 0.00 | 62 | 1014.8 |
| 20260503015308 | 21 | 35 | 0.0 | 1.6 | 0.00 | 0.00 | 0.00 | 61 | 1015.0 |
| 20260503014803 | 21 | 81 | 0.0 | 0.0 | 0.00 | 0.00 | 0.00 | 62 | 1015.0 |
| 20260503014302 | 21 | 26 | 0.0 | 3.2 | 0.00 | 0.00 | 0.00 | 62 | 1014.7 |
| 20260503013758 | 21 | 66 | 0.0 | 3.2 | 0.00 | 0.00 | 0.00 | 61 | 1014.8 |
| 20260503013256 | 21 | 63 | 1.6 | 3.2 | 0.00 | 0.00 | 0.00 | 60 | 1014.9 |
| 20260503012753 | 22 | 29 | 1.6 | 1.6 | 0.00 | 0.00 | 0.00 | 60 | 1014.7 |
| 20260503012250 | 22 | 90 | 0.0 | 3.2 | 0.00 | 0.00 | 0.00 | 59 | 1015.0 |
| 20260503011747 | 22 | 286 | 1.6 | 1.6 | 0.00 | 0.00 | 0.00 | 57 | 1015.0 |
| 20260503011244 | 22 | 66 | 0.0 | 0.0 | 0.00 | 0.00 | 0.00 | 58 | 1014.9 |
| 20260503010740 | 22 | 111 | 1.6 | 1.6 | 0.00 | 0.00 | 0.00 | 57 | 1015.0 |
| 20260503010237 | 22 | 82 | 1.6 | 1.6 | 0.00 | 0.00 | 0.00 | 57 | 1014.9 |
| 20260503005734 | 22 | 6 | 0.0 | 3.2 | 0.00 | 0.00 | 0.00 | 56 | 1015.0 |
| 20260503005232 | 22 | 0 | 0.0 | 3.2 | 0.00 | 0.00 | 0.00 | 57 | 1015.0 |
| 20260503004727 | 22 | 353 | 0.0 | 0.0 | 0.00 | 0.00 | 0.00 | 56 | 1015.1 |
| 20260503004226 | 22 | 320 | 0.0 | 3.2 | 0.00 | 0.00 | 0.00 | 56 | 1014.9 |
| 20260503003723 | 22 | 353 | 0.0 | 3.2 | 0.00 | 0.00 | 0.00 | 56 | 1015.0 |
| 20260503003220 | 23 | 166 | 0.0 | 3.2 | 0.00 | 0.00 | 0.00 | 55 | 1015.0 |
| 20260503002716 | 23 | 0 | 0.0 | 3.2 | 0.00 | 0.00 | 0.00 | 56 | 1014.9 |
| 20260503002213 | 23 | 0 | 0.0 | 3.2 | 0.00 | 0.00 | 0.00 | 55 | 1015.0 |
| 20260503001709 | 23 | 0 | 1.6 | 3.2 | 0.00 | 0.00 | 0.00 | 55 | 1015.1 |
| 20260503001206 | 23 | 0 | 0.0 | 3.2 | 0.00 | 0.00 | 0.00 | 56 | 1014.9 |
| 20260503000704 | 23 | 270 | 0.0 | 3.2 | 0.00 | 0.00 | 0.00 | 56 | 1015.0 |
| 20260503000203 | 22 | 355 | 0.0 | 1.6 | 0.00 | 0.00 | 0.00 | 57 | 1015.1 |
| 20260502235658 | 22 | 90 | 0.0 | 4.8 | 0.00 | 0.00 | 0.00 | 56 | 1015.0 |
| 20260502235156 | 23 | 60 | 3.2 | 3.2 | 0.00 | 0.00 | 0.00 | 55 | 1015.2 |
| 20260502234652 | 23 | 11 | 0.0 | 3.2 | 0.00 | 0.00 | 0.00 | 56 | 1015.2 |
| 20260502234149 | 22 | 342 | 0.0 | 1.6 | 0.00 | 0.00 | 0.00 | 57 | 1015.4 |
| 20260502233645 | 22 | 0 | 0.0 | 3.2 | 0.00 | 0.00 | 0.00 | 56 | 1015.3 |
| 20260502233142 | 22 | 222 | 4.8 | 4.8 | 0.00 | 0.00 | 0.00 | 56 | 1015.4 |
| 20260502232638 | 22 | 78 | 3.2 | 3.2 | 0.00 | 0.00 | 0.00 | 57 | 1015.5 |
| 20260502232136 | 22 | 98 | 3.2 | 4.8 | 0.00 | 0.00 | 0.00 | 56 | 1015.7 |
| 20260502231632 | 22 | 90 | 0.0 | 4.8 | 0.00 | 0.00 | 0.00 | 57 | 1015.5 |
| 20260502231130 | 22 | 74 | 3.2 | 4.8 | 0.00 | 0.00 | 0.00 | 58 | 1015.5 |
| 20260502230628 | 22 | 29 | 1.6 | 3.2 | 0.00 | 0.00 | 0.00 | 57 | 1015.8 |
| 20260502230126 | 22 | 0 | 0.0 | 4.8 | 0.00 | 0.00 | 0.00 | 56 | 1015.9 |
| 20260502225621 | 22 | 0 | 0.0 | 3.2 | 0.00 | 0.00 | 0.00 | 56 | 1016.0 |
| 20260502225118 | 22 | 114 | 0.0 | 4.8 | 0.00 | 0.00 | 0.00 | 56 | 1015.9 |
| 20260502224615 | 22 | 57 | 3.2 | 4.8 | 0.00 | 0.00 | 0.00 | 56 | 1016.0 |
| 20260502224112 | 22 | 340 | 1.6 | 4.8 | 0.00 | 0.00 | 0.00 | 56 | 1016.0 |
| 20260502223609 | 22 | 40 | 0.0 | 3.2 | 0.00 | 0.00 | 0.00 | 59 | 1016.2 |
| 20260502223108 | 22 | 117 | 1.6 | 4.8 | 0.00 | 0.00 | 0.00 | 57 | 1016.2 |
| 20260502222605 | 22 | 60 | 0.0 | 1.6 | 0.00 | 0.00 | 0.00 | 57 | 1016.5 |
| 20260502222101 | 22 | 114 | 0.0 | 3.2 | 0.00 | 0.00 | 0.00 | 57 | 1016.3 |
| 20260502221556 | 22 | 216 | 0.0 | 3.2 | 0.00 | 0.00 | 0.00 | 57 | 1016.5 |
| 20260502221054 | 22 | 63 | 1.6 | 3.2 | 0.00 | 0.00 | 0.00 | 59 | 1016.5 |
| 20260502220550 | 21 | 340 | 0.0 | 1.6 | 0.00 | 0.00 | 0.00 | 58 | 1016.5 |
| 20260502220047 | 21 | 99 | 0.0 | 1.6 | 0.00 | 0.00 | 0.00 | 58 | 1016.7 |
| 20260502215544 | 21 | 90 | 0.0 | 3.2 | 0.00 | 0.00 | 0.00 | 59 | 1016.8 |
| 20260502215041 | 21 | 324 | 0.0 | 3.2 | 0.00 | 0.00 | 0.00 | 60 | 1016.6 |
| 20260502214538 | 21 | 353 | 1.6 | 1.6 | 0.00 | 0.00 | 0.00 | 59 | 1016.9 |
| 20260502214035 | 21 | 277 | 1.6 | 1.6 | 0.00 | 0.00 | 0.00 | 60 | 1016.9 |
| 20260502213532 | 21 | 71 | 1.6 | 3.2 | 0.00 | 0.00 | 0.00 | 61 | 1016.9 |
| 20260502213030 | 21 | 352 | 3.2 | 3.2 | 0.00 | 0.00 | 0.00 | 61 | 1017.0 |
| 20260502212528 | 21 | 75 | 1.6 | 3.2 | 0.00 | 0.00 | 0.00 | 61 | 1017.1 |
| 20260502212026 | 21 | 270 | 0.0 | 3.2 | 0.00 | 0.00 | 0.00 | 62 | 1017.2 |
| 20260502211521 | 21 | 0 | 1.6 | 4.8 | 0.00 | 0.00 | 0.00 | 59 | 1017.1 |